Flag Weather past 2 weeks in Stamford, Connecticut, U.S.A.

Now
33 °F

Light snow. Dense fog.


Feels Like: 26 °F
Forecast: 35 / 43 °F
Wind: 8 mph from North

Location: Westchester County Airport

Current Time: Nov 26, 2014 at 1:39:06 PM

Latest Report: Nov 26, 2014 at 12:56 PM


Visibility: 1 mi

Pressure: 30.03 "Hg

Humidity: 96%

Dew point: 32 °F

Location of StamfordLocation

Historic Weather in Stamford — Graph

°F

Stamford temperature yesterday

Maximum temperature yesterday: 65 °F (at 12:56 AM)
Minimum temperature yesterday: 45 °F (at 9:56 PM)
Average temperature yesterday: 54 °F

Past Weeks' High & Low Weather Summary

 TemperatureHumidityPressure
High65 °F (Nov 25, 12:56 AM)100% (Nov 11, 11:56 PM)30.50 "Hg (Nov 11, 11:56 PM)
Low20 °F (Nov 19, 4:56 AM)29% (Nov 18, 12:56 PM)29.50 "Hg (Nov 17, 7:56 PM)
Average40 °F60%30.05 "Hg
* Reported Nov 11 11:56 AM — Nov 26 11:56 AM, Stamford, Weather by CustomWeather, © 2014

Note: Actual official high and low records may vary slightly from our data, if they occured in-between our weather recording intervals... More about our weather records

Advertising

Stamford weather history for previous 24 hours

 ConditionsComfort  
Time TempWeatherWind HumidityBarometerVisibility
11:56 AM
Nov 26
34 °FLight snow. Fog.9 mph88%30.00 "Hg1 mi
10:56 AM33 °FLight snow. Fog.3 mph96%30.12 "Hg1 mi
9:56 AM34 °FLight rain. Dense fog.3 mph92%30.14 "Hg1 mi
8:56 AM35 °FLight rain. More clouds than sun.7 mph92%30.12 "Hg2 mi
7:56 AM37 °FRain. Overcast.10 mph82%30.15 "Hg6 mi
6:56 AM41 °FLight rain. Overcast.8 mph65%30.15 "Hg10 mi
5:56 AM41 °FLight rain. Overcast.21 mph65%30.10 "Hg10 mi
4:56 AM43 °FLight rain. Overcast.17 mph60%30.12 "Hg10 mi
3:56 AM45 °FOvercast.No wind56%30.17 "Hg10 mi
2:56 AM46 °FPassing clouds.3 mph51%30.19 "Hg10 mi
1:56 AM46 °FPassing clouds.No wind50%30.16 "Hg10 mi
12:56 AM46 °FClear.3 mph51%30.14 "Hg10 mi
11:56 PM
Nov 25
47 °FPassing clouds.No wind50%30.14 "Hg10 mi
10:56 PM47 °FClear.5 mph48%30.14 "Hg10 mi
9:56 PM45 °FClear.3 mph53%30.11 "Hg10 mi
8:56 PM47 °FClear.No wind48%30.10 "Hg10 mi
7:56 PM48 °FPassing clouds.6 mph46%30.06 "Hg10 mi
6:56 PM48 °FPassing clouds.3 mph48%30.04 "Hg10 mi
5:56 PM46 °FPassing clouds.No wind54%30.02 "Hg10 mi
4:56 PM49 °FClear.No wind44%30.00 "Hg10 mi
3:56 PM51 °FPartly sunny.3 mph38%29.99 "Hg10 mi
2:56 PM52 °FPartly sunny.6 mph37%29.97 "Hg10 mi
1:56 PM52 °FScattered clouds.10 mph35%29.96 "Hg10 mi
Weather by CustomWeather, © 2014

See weather overviewHow to use our weather pages